FW4586 Weather Reports


time (UTC)temp
F
wind
direction
speed
knots
gust
knots
rain 1hr
in
rain 24hr
in
rain mn
in
humidity
%
barometer
mb
20260508011606 47 260 0.0 0.9 0.04 0.74 0.74 95 1002.6
20260508010059 47 237 0.0 0.0 0.08 0.74 0.74 95 1002.6
20260508004602 47 247 0.0 0.0 0.10 0.73 0.73 95 1002.7
20260508003058 47 220 0.0 0.9 0.12 0.71 0.71 95 1002.7
20260508001559 46 164 2.6 7.0 0.13 0.70 0.70 95 1002.8
20260508000058 46 228 2.6 7.0 0.09 0.66 0.66 95 1002.9
20260507234558 45 200 7.0 13.0 0.06 0.63 0.63 95 1002.6
20260507233058 47 267 5.2 11.3 0.02 0.59 0.59 92 1002.3
20260507231549 48 218 6.1 12.2 0.00 0.56 0.56 91 1001.9
20260507230104 56 264 3.5 7.8 0.00 0.56 0.56 84 1001.3
20260507224551 56 231 4.3 13.0 0.00 0.56 0.56 83 1001.0
20260507223045 56 138 7.8 13.9 0.00 0.56 0.56 85 1000.9
20260507221546 56 111 6.1 13.0 0.00 0.56 0.56 84 1001.0
20260507220052 56 120 10.4 16.5 0.00 0.56 0.56 85 1000.7
20260507214544 55 123 11.3 20.9 0.00 0.56 0.56 85 1000.7
20260507213044 56 145 12.2 20.9 0.00 0.56 0.56 84 1000.6
20260507211544 56 141 12.2 21.7 0.00 0.56 0.56 85 1000.7
20260507210053 56 122 13.9 20.0 0.00 0.56 0.56 83 1000.7
20260507204541 56 110 11.3 20.0 0.02 0.56 0.56 85 1000.6
20260507203108 55 144 11.3 25.2 0.07 0.56 0.56 87 1000.7
20260507201540 55 117 15.6 31.3 0.13 0.56 0.56 87 1000.2
20260507200041 55 118 19.1 31.3 0.15 0.56 0.56 86 999.7
20260507194536 55 139 15.6 26.1 0.16 0.55 0.55 88 1000.9
20260507193035 55 161 11.3 16.5 0.14 0.49 0.49 88 1001.7
20260507191536 55 150 8.7 16.5 0.14 0.44 0.44 88 1002.8
20260507190030 55 152 8.7 23.5 0.18 0.42 0.42 88 1002.6
20260507184526 54 124 12.2 21.7 0.25 0.39 0.39 89 1003.1
20260507183024 54 140 11.3 20.0 0.32 0.35 0.35 90 1003.2
20260507181521 55 198 13.0 30.4 0.28 0.30 0.30 89 1003.5
20260507180022 55 204 14.8 26.1 0.24 0.24 0.24 90 1003.7
20260507174522 55 250 10.4 24.3 0.13 0.13 0.13 90 1004.1
20260507173018 56 209 17.4 29.5 0.03 0.03 0.03 87 1003.3
20260507171506 57 225 13.0 24.3 0.01 0.01 0.01 86 1002.4
20260507170006 59 218 18.2 31.3 0.00 0.00 0.00 82 1002.7
20260507164504 59 187 14.8 38.2 0.00 0.00 0.00 82 1002.6
20260507163002 60 226 20.0 40.0 0.00 0.00 0.00 77 1002.6
20260507161501 60 208 21.7 43.4 0.00 0.00 0.00 78 1003.2
20260507160104 60 219 18.2 39.1 0.00 0.00 0.00 77 1003.6
20260507154558 60 214 20.0 43.4 0.00 0.00 0.00 77 1003.9
20260507153059 60 206 21.7 37.4 0.00 0.00 0.00 75 1004.2
20260507151558 61 220 21.7 40.0 0.00 0.00 0.00 73 1004.6
20260507150054 60 217 20.0 45.2 0.00 0.00 0.00 76 1004.8
20260507144607 61 187 21.7 39.1 0.00 0.00 0.00 75 1004.9
20260507143100 61 189 26.9 39.1 0.00 0.00 0.00 76 1005.0
20260507141558 60 186 23.5 33.0 0.00 0.00 0.00 78 1005.7
20260507140050 59 198 16.5 38.2 0.00 0.00 0.00 80 1005.7
20260507134552 59 193 20.9 39.1 0.00 0.00 0.00 79 1005.8
20260507133125 59 221 15.6 34.8 0.00 0.00 0.00 79 1005.5
20260507131548 59 247 23.5 47.8 0.00 0.00 0.00 80 1005.8
20260507130058 59 194 26.9 41.7 0.00 0.00 0.00 81 1006.3
20260507124548 60 220 20.0 34.8 0.00 0.00 0.00 80 1006.0
20260507123047 60 214 21.7 39.1 0.00 0.00 0.00 79 1006.5
20260507121542 60 231 17.4 38.2 0.00 0.00 0.00 80 1006.2
20260507120039 59 198 21.7 42.6 0.00 0.00 0.00 82 1006.6
20260507114547 59 133 20.0 35.6 0.00 0.00 0.00 82 1007.0
20260507113038 58 197 21.7 33.9 0.00 0.00 0.00 83 1007.1
20260507111536 59 171 20.9 40.0 0.00 0.00 0.00 81 1007.9
20260507110041 59 138 23.5 39.1 0.00 0.00 0.00 80 1007.5
20260507104534 59 135 13.9 29.5 0.00 0.00 0.00 80 1007.7
20260507103042 59 150 19.1 33.9 0.00 0.00 0.00 81 1007.6
20260507101537 59 178 26.1 37.4 0.00 0.00 0.00 79 1007.7
20260507100036 59 136 26.1 43.4 0.00 0.00 0.00 80 1008.3
20260507094535 59 157 27.8 41.7 0.00 0.00 0.00 80 1007.7
20260507093029 58 196 14.8 36.5 0.00 0.00 0.00 81 1008.9
20260507091532 58 138 24.3 35.6 0.00 0.00 0.00 83 1008.9
20260507090025 58 148 20.9 38.2 0.00 0.00 0.00 83 1009.1
20260507084524 58 122 23.5 31.3 0.00 0.00 0.00 82 1008.9
20260507083023 59 209 15.6 30.4 0.00 0.00 0.00 81 1010.0
20260507081523 59 184 10.4 33.0 0.00 0.00 0.00 82 1009.0
20260507080019 59 145 21.7 37.4 0.00 0.00 0.00 81 1009.3
20260507074516 59 133 16.5 26.1 0.00 0.00 0.00 81 1010.1
20260507073015 59 143 18.2 27.8 0.00 0.00 0.00 81 1010.3
20260507071514 59 202 11.3 24.3 0.00 0.00 0.00 80 1011.1
20260507070018 59 154 14.8 26.9 0.00 0.00 0.00 78 1011.0
20260507064513 59 141 15.6 26.1 0.00 0.00 0.00 78 1011.2
20260507063007 59 183 13.9 32.2 0.00 0.00 0.00 77 1010.9
20260507061505 59 198 20.0 32.2 0.00 0.00 0.00 76 1011.3
20260507060002 59 164 14.8 27.8 0.00 0.00 0.00 75 1011.8
20260507054600 59 159 16.5 24.3 0.00 0.00 0.00 74 1011.5
20260507053124 59 132 13.0 22.6 0.00 0.00 0.00 68 1012.3
20260507051556 59 200 10.4 26.1 0.00 0.00 0.00 65 1012.7
20260507050054 58 145 15.6 25.2 0.00 0.00 0.00 68 1013.0
20260507044600 58 155 8.7 17.4 0.00 0.00 0.00 72 1013.4
20260507043050 58 176 10.4 18.2 0.00 0.00 0.00 73 1013.9
20260507041549 59 60 15.6 28.7 0.00 0.00 0.00 71 1014.2
20260507040143 59 158 14.8 26.9 0.00 0.00 0.00 69 1014.4
20260507034544 59 172 13.0 25.2 0.00 0.00 0.00 71 1014.5
20260507033049 59 129 15.6 30.4 0.00 0.00 0.00 72 1015.0
20260507031551 59 215 12.2 26.9 0.00 0.00 0.00 72 1015.3
20260507030033 60 174 15.6 26.1 0.00 0.00 0.00 71 1015.4
20260507024531 60 212 16.5 27.8 0.00 0.00 0.00 70 1015.6
20260507023030 60 220 17.4 28.7 0.00 0.00 0.00 69 1015.7
20260507021530 60 176 14.8 26.9 0.00 0.00 0.00 69 1015.8
20260507020028 61 207 17.4 33.0 0.00 0.00 0.00 68 1015.8
20260507014540 61 240 17.4 28.7 0.00 0.00 0.00 69 1015.9
20260507013035 61 190 14.8 36.5 0.00 0.00 0.00 69 1015.9